Location: Observatoire
(46.1952°N, 5.3391°E)
Time: 03:25:32
(UTC+02:00)

ITAMSAT 1 - Pass Details

Date: 25 April 2024
Orbit: 782 x 796 km, 98.8° (Epoch: 24 May)

Event Time Altitude Azimuth Distance (km) Brightness Sun altitude
Exits shadow 21:06:44 - 137° (SE) 2,900 10.0 -5.1°
Reaches altitude 10° 21:08:11 10° 132° (SE) 2,362 9.5 -5.3°
Maximum altitude 21:12:56 37° 66° (ENE) 1,224 8.4 -6.1°
Drops below altitude 10° 21:17:42 10° 1° (N) 2,374 10.5 -6.8°
Sets 21:20:11 0° 353° (N) 3,307 11.4 -7.2°
